Cape Byron Observation History
Time Wind Speed Temp Pressure Rel. Hum Rain
25/06:30pm ESE 13-17 kts 22.7°c 1012.4 hPa 80% 0.0mm
25/06:00pm E 14-18 kts 23.3°c 1011.9 hPa 81% 0.0mm
25/05:30pm ESE 15-17 kts 23.2°c 1011.7 hPa 79% 0.0mm
25/05:00pm SE 8-12 kts 23.7°c 1011.8 hPa 88% 0.0mm
25/04:30pm SSE 9-10 kts 22.5°c 1012.0 hPa 91% 0.0mm
25/04:00pm S 7-9 kts 21.9°c 1012.1 hPa 92% 0.0mm
25/03:30pm S 7-8 kts 21.1°c 1012.3 hPa 97% 0.0mm
25/03:00pm SSE 9-11 kts 19.8°c 1012.3 hPa 100% 0.0mm
25/02:30pm S 15-18 kts 20.2°c 1012.5 hPa 98% 0.0mm
25/02:00pm S 17-19 kts 20.8°c 1012.6 hPa 96% 0.0mm
25/01:30pm S 17-19 kts 21.4°c 1012.7 hPa 93% 0.0mm
25/01:00pm S 19-22 kts 21.3°c 1012.8 hPa 94% 0.0mm
25/12:30pm S 19-22 kts 21.6°c 1013.0 hPa 92% 0.0mm
25/12:00pm S 19-24 kts 21.5°c 1013.3 hPa 93% 0.0mm
25/11:30am S 19-22 kts 21.5°c 1013.4 hPa 92% 0.0mm
25/11:00am S 17-20 kts 21.8°c 1013.5 hPa 90% 0.0mm
25/10:30am S 17-19 kts 21.7°c 1013.5 hPa 89% 0.0mm
25/10:00am SSW 14-19 kts 22.0°c 1013.6 hPa 90% 0.0mm
25/09:30am SSW 12-17 kts 21.0°c 1013.6 hPa 95% 0.0mm
25/09:00am SSW 12-16 kts 20.6°c 1013.5 hPa 94% 1.0mm
25/08:30am SSW 12-17 kts 20.6°c 1013.4 hPa 96% 1.0mm
25/08:00am SSW 13-17 kts 20.1°c 1013.2 hPa 97% 1.0mm
25/07:30am SSW 13-17 kts 20.1°c 1013.0 hPa 98% 1.0mm
25/07:00am SSW 12-15 kts 19.7°c 1012.6 hPa 100% 1.0mm
25/06:30am SSW 12-16 kts 19.4°c 1012.3 hPa 100% 1.0mm
25/06:00am SSW 11-16 kts 19.3°c 1012.0 hPa 100% 1.0mm
25/05:30am SSW 12-15 kts 19.4°c 1011.6 hPa 100% 1.0mm
25/05:00am SSW 12-17 kts 19.6°c 1011.3 hPa 100% 1.0mm
25/04:30am SSW 12-16 kts 19.9°c 1011.1 hPa 100% 1.0mm
25/04:00am SSW 12-17 kts 20.0°c 1011.1 hPa 100% 1.0mm
25/03:30am SSW 11-15 kts 20.0°c 1011.2 hPa 98% 1.0mm
25/03:00am SW 8-11 kts 20.6°c 1011.1 hPa 93% 1.0mm
25/02:30am SE 10-14 kts 22.1°c 1010.9 hPa 79% 1.0mm
25/02:00am SE 11-15 kts 22.2°c 1011.2 hPa 78% 1.0mm
25/01:30am SE 13-16 kts 22.3°c 1011.3 hPa 82% 1.0mm
25/01:00am ESE 15-18 kts 22.2°c 1011.7 hPa 86% 1.0mm
25/12:30am E 14-17 kts 21.8°c 1011.8 hPa 90% 1.0mm
25/12:00am E 15-19 kts 22.1°c 1012.5 hPa 91% 1.0mm
Time Wind Speed Temp Pressure Rel. Hum Rain
24/11:30pm E 15-18 kts 22.0°c 1012.5 hPa 92% 1.0mm
24/11:00pm E 13-16 kts 21.7°c 1012.6 hPa 93% 1.0mm
24/10:30pm E 15-17 kts 21.7°c 1012.3 hPa 95% 1.0mm
24/10:00pm E 16-20 kts 21.8°c 1011.9 hPa 93% 1.0mm
24/09:30pm E 16-20 kts 21.4°c 1011.8 hPa 98% 1.0mm
24/09:00pm E 18-25 kts 21.3°c 1011.4 hPa 100% 0.8mm
24/08:30pm ESE 16-19 kts 22.4°c 1011.5 hPa 91% 0.0mm
24/08:00pm ESE 19-23 kts 22.5°c 1010.9 hPa 87% 0.0mm
24/07:30pm ESE 21-26 kts 22.6°c 1010.0 hPa 89% 0.0mm
24/07:00pm ESE 21-26 kts 22.7°c 1009.7 hPa 86% 0.0mm
24/06:30pm ESE 21-26 kts 22.6°c 1009.3 hPa 87% 0.0mm
24/06:00pm ESE 22-28 kts 22.6°c 1008.8 hPa 87% 0.0mm
24/05:30pm ESE 23-29 kts 22.7°c 1008.3 hPa 88% 0.0mm
24/05:00pm ESE 23-27 kts 22.7°c 1007.8 hPa 89% 0.0mm
24/04:30pm SE 18-25 kts 22.2°c 1007.7 hPa 97% 0.0mm
24/04:00pm SE 14-19 kts 22.2°c 1008.2 hPa 98% 0.0mm
24/03:30pm S 18-20 kts 21.7°c 1007.9 hPa 100% 0.0mm
24/03:00pm S 20-23 kts 22.3°c 1007.9 hPa 96% 0.0mm
24/02:30pm S 21-24 kts 22.9°c 1008.1 hPa 92% 0.0mm
24/02:00pm S 22-27 kts 22.8°c 1008.3 hPa 92% 0.0mm
24/01:30pm S 25-31 kts 22.4°c 1008.4 hPa 92% 0.0mm
24/01:00pm S 26-29 kts 22.3°c 1008.5 hPa 92% 0.0mm
24/12:30pm S 25-28 kts 22.4°c 1008.7 hPa 92% 0.0mm
24/12:00pm S 23-27 kts 22.1°c 1009.1 hPa 95% 0.0mm
24/11:30am S 20-24 kts 21.7°c 1009.4 hPa 96% 0.0mm
24/11:00am S 22-27 kts 22.3°c 1009.4 hPa 94% 0.0mm
24/10:30am S 23-27 kts 22.6°c 1009.3 hPa 95% 0.0mm
24/10:00am S 22-26 kts 22.9°c 1009.1 hPa 93% 0.0mm
24/09:30am S 23-27 kts 22.9°c 1008.8 hPa 94% 0.0mm
24/09:00am S 23-28 kts 23.1°c 1008.7 hPa 95% 0.0mm
24/08:30am SSW 20-27 kts 22.7°c 1008.6 hPa 96% 0.0mm
24/08:00am S 22-27 kts 21.7°c 1008.2 hPa 100% 0.0mm
24/07:30am S 17-20 kts 21.1°c 1007.8 hPa 100% 0.0mm
24/07:00am S 16-19 kts 20.8°c 1007.3 hPa 100% 0.0mm
24/06:30am S 8-11 kts 21.7°c 1006.6 hPa 100% 0.0mm
24/06:00am S 5-6 kts 21.7°c 1006.1 hPa 100% 0.0mm
24/05:30am NW 5-6 kts 21.9°c 1005.5 hPa 100% 0.0mm
24/05:00am NW 5-7 kts 21.5°c 1005.1 hPa 100% 0.0mm
24/04:30am NW 7-15 kts 21.5°c 1005.0 hPa 100% 0.0mm
24/04:00am NW 7-11 kts 21.0°c 1005.0 hPa 100% 0.0mm
24/03:30am NNW 11-16 kts 21.2°c 1004.8 hPa 100% 0.0mm
24/03:00am NW 11-14 kts 21.7°c 1005.3 hPa 100% 0.0mm
24/02:30am N 10-11 kts 22.1°c 1005.4 hPa 100% 0.0mm
24/02:00am SW 8-9 kts 22.1°c 1007.3 hPa 100% 0.0mm
24/01:30am S 13-16 kts 22.1°c 1007.9 hPa 100% 0.0mm
24/01:00am S 20-22 kts 21.8°c 1008.0 hPa 100% 0.0mm
24/12:30am SSW 18-28 kts 22.9°c 1008.3 hPa 97% 0.0mm
24/12:28am SSW 15-28 kts 23.3°c 1008.3 hPa 94% 0.0mm
24/12:08am SW 16-29 kts 22.3°c 1008.4 hPa 100% 0.0mm
24/12:02am WNW 13-25 kts 21.5°c 1008.0 hPa 100% 0.0mm
24/12:00am NW 13-21 kts 21.4°c 1006.9 hPa 100% 0.0mm
Time Wind Speed Temp Pressure Rel. Hum Rain
23/11:30pm NNW 13-21 kts 21.5°c 1006.2 hPa 100% 0.0mm
23/11:00pm NNW 14-22 kts 21.7°c 1006.6 hPa 100% 0.0mm
23/10:30pm NNW 16-22 kts 21.5°c 1006.6 hPa 100% 0.0mm
23/10:00pm NNW 16-23 kts 21.5°c 1006.9 hPa 100% 0.0mm
23/09:30pm NNW 17-23 kts 21.6°c 1006.7 hPa 100% 0.0mm
23/09:00pm NNW 17-22 kts 21.6°c 1006.4 hPa 100% 0.0mm
23/08:30pm NNW 18-28 kts 21.7°c 1006.0 hPa 100% 0.0mm
23/08:14pm NNW 19-29 kts 21.8°c 1006.0 hPa 100% 0.0mm
23/08:00pm NNW 19-25 kts 21.9°c 1006.0 hPa 100% 0.0mm
23/07:30pm NNW 19-28 kts 22.2°c 1005.9 hPa 100% 0.0mm
23/07:00pm NNW 19-27 kts 22.5°c 1006.0 hPa 99% 0.0mm
23/06:33pm N 19-29 kts 22.8°c 1005.9 hPa 98% 0.0mm
23/06:30pm N 20-29 kts 22.9°c 1005.9 hPa 97% 0.0mm
23/06:02pm N 19-29 kts 23.1°c 1005.8 hPa 96% 0.0mm
23/06:00pm N 19-26 kts 23.2°c 1005.8 hPa 95% 0.0mm
23/05:31pm N 21-31 kts 23.6°c 1005.6 hPa 94% 0.0mm
23/05:30pm N 22-31 kts 23.6°c 1005.7 hPa 94% 0.0mm
23/05:00pm N 22-29 kts 23.8°c 1005.8 hPa 93% 0.0mm
23/04:30pm N 22-29 kts 24.3°c 1006.1 hPa 91% 0.0mm
23/04:00pm N 22-33 kts 24.2°c 1006.1 hPa 90% 0.0mm
23/03:30pm N 22-33 kts 24.3°c 1006.6 hPa 88% 0.0mm
23/03:03pm N 21-31 kts 24.6°c 1007.0 hPa 86% 0.0mm
23/03:00pm N 22-31 kts 24.6°c 1007.1 hPa 86% 0.0mm
23/02:32pm N 23-33 kts 24.7°c 1007.3 hPa 83% 0.0mm
23/02:30pm N 23-32 kts 24.7°c 1007.4 hPa 83% 0.0mm
23/02:06pm N 24-34 kts 24.8°c 1007.9 hPa 81% 0.0mm
23/02:00pm N 25-34 kts 24.7°c 1008.0 hPa 81% 0.0mm
23/01:39pm N 24-34 kts 24.7°c 1008.6 hPa 81% 0.0mm
23/01:30pm N 25-33 kts 24.7°c 1008.7 hPa 81% 0.0mm
23/01:05pm N 23-33 kts 24.5°c 1009.4 hPa 82% 0.0mm
23/01:00pm N 23-32 kts 24.5°c 1009.6 hPa 82% 0.0mm
23/12:30pm N 20-30 kts 24.7°c 1010.2 hPa 82% 0.0mm
23/12:24pm N 20-30 kts 24.5°c 1010.2 hPa 83% 0.0mm
23/12:00pm NNE 17-26 kts 24.9°c 1010.6 hPa 80% 0.0mm
23/11:30am NNE 19-29 kts 24.4°c 1010.9 hPa 82% 0.0mm
23/11:02am NNE 16-28 kts 24.7°c 1011.3 hPa 81% 0.0mm
23/11:00am NNE 15-24 kts 24.6°c 1011.4 hPa 81% 0.0mm
23/10:30am N 15-21 kts 24.2°c 1012.2 hPa 82% 0.0mm
23/10:00am N 12-18 kts 24.4°c 1012.5 hPa 80% 0.0mm
23/09:30am N 12-15 kts 23.9°c 1012.7 hPa 82% 0.0mm
23/09:00am NNW 9-14 kts 23.7°c 1013.1 hPa 84% 0.0mm
23/08:30am NNW 10-15 kts 22.8°c 1013.1 hPa 88% 0.0mm
23/08:00am NNW 9-14 kts 22.0°c 1013.4 hPa 89% 0.0mm
23/07:30am NNW 9-13 kts 21.1°c 1013.5 hPa 90% 0.0mm
23/07:00am NNW 6-10 kts 20.7°c 1013.4 hPa 94% 0.0mm
23/06:30am NW 9-17 kts 20.6°c 1013.2 hPa 96% 0.0mm
23/06:00am NNW 13-20 kts 20.4°c 1012.9 hPa 95% 0.0mm
23/05:30am NNW 11-16 kts 20.1°c 1012.8 hPa 98% 0.0mm
23/05:00am NNW 9-12 kts 20.0°c 1013.1 hPa 99% 0.0mm
23/04:30am NNW 7-11 kts 20.1°c 1013.2 hPa 99% 0.0mm
23/04:00am NNW 7-11 kts 20.2°c 1013.4 hPa 100% 0.0mm
23/03:30am NNW 8-12 kts 20.4°c 1013.3 hPa 100% 0.0mm
23/03:00am NNW 7-12 kts 20.5°c 1013.5 hPa 99% 0.0mm
23/02:30am NNW 12-17 kts 21.0°c 1013.8 hPa 95% 0.0mm
23/02:00am NNW 11-16 kts 20.8°c 1014.5 hPa 96% 0.0mm
23/01:30am NNW 10-16 kts 20.9°c 1014.8 hPa 97% 0.0mm
23/01:00am NNW 11-18 kts 21.0°c 1015.1 hPa 96% 0.0mm
23/12:30am NNW 10-15 kts 20.8°c 1015.4 hPa 99% 0.0mm
23/12:00am NNW 12-17 kts 21.3°c 1015.8 hPa 99% 0.0mm